Location: Kosice
(0.0000°N, 21.2500°E)
Time: 18:20:38
(UTC+01:00)

FUSE - Pass Details

Date: 24 January 2021
Orbit: 742 x 756 km, 25.0° (Epoch: 01 March)

Event Time Altitude Azimuth Distance (km) Brightness Sun altitude
Rises 18:59:18 0° 292° (WNW) 3,166 8.0 -17.0°
Reaches altitude 10° 19:01:46 10° 290° (WNW) 2,241 7.1 -17.6°
Maximum altitude 19:07:03 70° 207° (SSW) 782 4.1 -18.8°
Enters shadow 19:10:47 20° 126° (SE) 1,672 5.4 -19.7°
